ARIANE 5 DEB (SYLDA), 42694

Orbit data source: Space-Track

ARIANE 5 DEB (SYLDA), 42694 is space debris in HEO originally from a launch on Thu, 04 May 2017 UTC launched from the French Guiana (FRGUI). Debris objects in space refer to the collection of defunct objects orbiting the Earth. Examples of debris include non-operational satellites, rocket bodies, and fragments generated from explosions, collisions, or faulty payload assembly.

Loading next visibility...
Identifier
42694, 2017-023D
Orbit
HEO
Country
Flag of FRFR
Related business
Manufacturer
ADS/Bremen
Mission
Spacecraft
Bus & Motor
SYLDA 5, Unknown motor
Mass
440 kg wet, 440 kg dry
Launch date (UTC)
2017-05-04 (9 years ago)
Launch vehicle
Unknown
Launch site
French Guiana (FRGUI)
Object type
Payload
Rocket body
Debris
Shape & HBR
Cyl, 2.8 m
Radar Cross Section
27.391 m², Large (>1 m²)

Expand to show TLE details & history
Last TLE update: 8 hours ago

TLE from 8 hours ago
0 ARIANE 5 DEB (SYLDA)
1 42694U 17023D   25308.71809630  .00000124  00000-0  24688-3 0  9998
2 42694   3.7483  41.8143 5495269 112.8577 312.5491  4.56154265105935
Epoch: 2025-11-04T17:14Z
TLE epoch observation values (Epoch: 2025-11-04T17:14:03.520Z)
Latitude
0.00001°
Longitude
99.00756°
Altitude
7,274.872 km
Speed
5.695 km/s
True Right ascension
02h 46m 53s
True Declination
0° 00' 00"
Sunlit
Object was in full shadow at epoch
Visualization orbit readout
Latitude
Unknown
Longitude
Unknown
Altitude
Unknown
Speed
Unknown
Apparent Right ascension
Unknown
Apparent Declination
Unknown
Sunlit
N/A
Visualization observer readout
Local Sidereal Time
21:28:25
Azimuth
Unknown
Elevation
Unknown
Doppler factor
Unknown
Orbital elements
Apogee altitude
17,426.683 km
Perigee altitude
542.318 km
Semi-major axis
15,362.638 km
Eccentricity
0.54953
Inclination
3.7483°
RAAN
41.8143°
Arg. of periapsis
112.8577°
True anomaly
247.05023°
Mean anomaly
312.5491°
Eccentric anomaly
281.71993°
Mean motion
1.13984 °/min
Orbital period
315.83 mins
BSTAR
0.00024688
Loading maneuver chart data...
Computing Atmospheric mass density...
Loading historical data...
Loading historical data...
Loading historical data...
Loading historical data...
Loading historical data...
Loading historical data...
Loading historical data...
Other satellites on launch #23 in the year 2017 (2017-05-04 UTC)

Documentation

Showing up to 5 results
|